Lid_Strength_Index
10 8 8 9 10 7 2 3 2 2 2 3 3 5 5 7 8 7 7 7 7 7 6 6 6 5 5 6 6 6 6 6
8 8 8 9 9 10 6 3 2 2 2 2 3 4 5 7 7 7 6 6 7 7 6 6 6 5 5 6 6 6 6 6
9 9 9 8 8 9 9 4 2 2 2 2 3 4 6 6 7 7 7 6 6 6 6 6 5 5 5 6 6 6 6 6
9 10 9 8 8 8 10 9 2 2 2 2 3 5 5 6 7 7 7 6 6 6 6 6 5 5 5 5 5 5 5 6
10 9 8 8 8 8 10 9 3 2 2 2 3 5 5 6 7 7 6 6 6 6 6 6 5 5 5 5 5 5 5 5
11 10 9 8 7 7 9 7 2 3 3 3 3 3 5 6 7 6 6 6 6 6 6 6 5 5 5 5 5 6 6 6
11 11 10 10 8 6 7 5 2 3 3 2 4 4 5 6 6 7 7 6 6 6 6 6 5 8 8 6 5 5 6 6
11 11 11 10 9 6 6 5 3 3 3 3 4 5 5 6 6 7 7 7 6 6 6 6 5 8 8 8 5 5 5 6
11 11 11 10 9 8 4 3 3 3 3 4 5 6 5 6 7 6 7 7 7 6 6 6 6 8 8 9 5 5 5 6
10 11 11 11 11 10 5 4 4 4 3 4 4 6 6 6 7 6 6 7 7 6 6 6 6 9 9 7 6 6 6 6
11 11 11 11 11 8 6 6 5 4 4 4 4 6 7 6 7 7 6 6 7 7 6 7 6 9 9 6 5 6 6 8
10 11 11 11 11 11 10 10 10 6 5 5 5 6 6 6 6 7 7 7 7 7 6 7 7 8 8 7 5 5 6 6
11 11 11 12 12 12 13 12 11 8 7 6 6 7 7 7 6 7 7 7 7 7 8 9 8 9 9 8 7 6 5 6
12 11 12 12 12 13 13 12 12 10 10 9 9 9 7 8 7 7 7 8 8 8 9 10 10 8 9 8 8 8 7 6
12 13 13 13 13 13 13 12 11 11 11 11 10 10 9 8 8 7 7 8 9 9 9 9 10 9 8 7 8 11 10 10
14 14 15 14 14 14 13 13 12 11 11 11 12 10 10 10 10 8 7 7 8 8 8 9 10 9 8 6 7 8 10 11
15 15 16 16 14 15 14 13 13 13 12 12 13 12 11 11 13 12 9 9 9 8 8 10 8 9 9 8 8 10 10 12
17 16 17 17 15 16 16 14 13 13 13 12 13 13 12 12 12 12 12 10 9 9 9 9 9 9 9 9 9 9 9 12
18 18 19 18 17 17 17 15 14 13 13 13 13 13 13 13 13 12 11 11 12 10 9 10 10 10 10 10 9 11 11 12
19 20 20 19 19 18 17 16 14 14 13 13 13 13 14 14 13 12 11 11 11 12 11 11 10 10 10 9 10 11 11 11